Погода в Галле

Шри-Ланка     6°02′20″N   80°12′57″E
темп.,
°C
ветер,
м/с
пор.,
м/с
влажн.,
%
обл.,
%
осадки,
мм/ч
давл.,
гПа
погр.,
м
28 января, чт
чт2823:30+25вюв237661 0.0 1012230
02:30+24юв237930 0.0 1010293
05:30+24вюв127915 0.0 1011251
08:30+25ссз227935 0.0 1012234
11:30+27з327321 0.0 1012621
14:30+27з437564 0.0 1009450
17:30+27з347782 0.4 1009511
20:30+27зюз2476100 0.4 1012412
29 января, пт
пт2923:30+26зюз348282 0.5 1012309
02:30+25зсз118451 0.0 1010247
05:30+25юв118540 0.0 1011243
08:30+27св118047 0.0 1012225
11:30+29ю227073 0.0 1013662
14:30+27ююз337877 1.9 1009667
17:30+25ссз459188 9.8 1010224
20:30+24с6992100 9.6 1013320
30 января, сб
сб3023:30+24с3587100 11.1 1012189
02:30+24с3385100 0.1 1010163
05:30+24всв1186100 0.1 1009114
08:30+26вюв127977 0.0 1012278
11:30+29юв346938 0.0 1011790
14:30+28юв247944 3.3 1008658
17:30+26ссз358572 10.9 1009243
20:30+25ссз4690100 2.2 1012233
31 января, вс
вс3123:30+25ссв2287100 2.4 1012163
02:30+25ссз008699 0.0 1009170
05:30+24ссв118799 0.0 1010143
08:30+26ссз118260 0.0 1012296
11:30+29ю046451 0.0 1012876
14:30+30юв15659 0.3 10081096
17:30+27зсз358341 3.2 1009355
20:30+26сз228393 0.3 1012231
1 февраля, пн
пн123:30+26юв138358 0.3 1012309
02:30+24всв47889 0.0 1010318
05:30+23всв348812 0.0 1011210
08:30+26с23803 0.0 1013212
11:30+30з13622 0.0 1012908
14:30+27зюз447844 0.6 1010387
17:30+27зюз348133 2.3 1010390
20:30+26юз238330 0.1 1012449